| time (UTC) | temp C | wind direction | speed KPH | gust KPH | rain 1hr cm | rain 24hr cm | rain mn cm | humidity % | barometer mb |
| 20260902063006 | 13 | 11 | 4.8 | 9.7 | 0.00 | 0.00 | 0.00 | 91 | 1019.6 |
| 20260902061507 | 13 | 22 | 4.8 | 11.3 | 0.00 | 0.00 | 0.00 | 91 | 1019.6 |
| 20260902060001 | 13 | 63 | 8.0 | 11.3 | 0.00 | 0.00 | 0.00 | 92 | 1019.5 |
| 20260902054600 | 13 | 28 | 6.4 | 11.3 | 0.00 | 0.00 | 0.00 | 92 | 1019.5 |
| 20260902053100 | 13 | 14 | 6.4 | 11.3 | 0.00 | 0.00 | 0.00 | 92 | 1019.4 |
| 20260902051556 | 13 | 19 | 1.6 | 6.4 | 0.00 | 0.00 | 0.00 | 92 | 1019.2 |
| 20260902050056 | 13 | 52 | 3.2 | 8.0 | 0.00 | 0.00 | 0.00 | 93 | 1019.2 |
| 20260902044552 | 13 | 28 | 4.8 | 8.0 | 0.00 | 0.00 | 0.00 | 93 | 1018.9 |
| 20260902043052 | 13 | 17 | 4.8 | 8.0 | 0.00 | 0.00 | 0.00 | 92 | 1018.7 |
| 20260902041603 | 14 | 24 | 3.2 | 4.8 | 0.00 | 0.00 | 0.00 | 91 | 1018.6 |
| 20260902040046 | 14 | 22 | 3.2 | 4.8 | 0.00 | 0.00 | 0.00 | 90 | 1018.5 |
| 20260902034541 | 14 | 15 | 3.2 | 6.4 | 0.00 | 0.00 | 0.00 | 89 | 1018.3 |
| 20260902033042 | 15 | 92 | 0.0 | 3.2 | 0.00 | 0.00 | 0.00 | 89 | 1018.4 |
| 20260902031539 | 15 | 92 | 1.6 | 3.2 | 0.00 | 0.00 | 0.00 | 88 | 1018.2 |
| 20260902030041 | 15 | 92 | 0.0 | 0.0 | 0.00 | 0.00 | 0.00 | 87 | 1018.2 |
| 20260902024544 | 15 | 92 | 0.0 | 1.6 | 0.00 | 0.00 | 0.00 | 86 | 1018.3 |
| 20260902023044 | 16 | 92 | 0.0 | 3.2 | 0.00 | 0.00 | 0.00 | 85 | 1018.3 |
| 20260902021546 | 15 | 64 | 0.0 | 3.2 | 0.00 | 0.00 | 0.00 | 86 | 1018.3 |
| 20260902020038 | 15 | 65 | 0.0 | 3.2 | 0.00 | 0.00 | 0.00 | 86 | 1018.3 |
| 20260902014541 | 16 | 65 | 0.0 | 4.8 | 0.00 | 0.00 | 0.00 | 86 | 1018.2 |
| 20260902013036 | 16 | 65 | 1.6 | 6.4 | 0.00 | 0.00 | 0.00 | 84 | 1018.2 |
| 20260902011535 | 16 | 81 | 1.6 | 4.8 | 0.00 | 0.00 | 0.00 | 84 | 1018.0 |
| 20260902010035 | 16 | 78 | 1.6 | 6.4 | 0.00 | 0.00 | 0.00 | 83 | 1017.9 |
| 20260902004534 | 16 | 56 | 1.6 | 6.4 | 0.00 | 0.00 | 0.00 | 85 | 1017.8 |
| 20260902003033 | 16 | 120 | 1.6 | 4.8 | 0.00 | 0.00 | 0.00 | 85 | 1017.7 |
| 20260902001532 | 17 | 131 | 3.2 | 4.8 | 0.00 | 0.00 | 0.00 | 83 | 1017.8 |
| 20260902000031 | 17 | 131 | 0.0 | 3.2 | 0.00 | 0.00 | 0.00 | 81 | 1017.6 |
| 20260901234531 | 17 | 131 | 0.0 | 3.2 | 0.00 | 0.00 | 0.00 | 80 | 1017.6 |
| 20260901233049 | 17 | 150 | 1.6 | 6.4 | 0.00 | 0.00 | 0.00 | 79 | 1017.5 |
| 20260901231529 | 18 | 129 | 3.2 | 6.4 | 0.00 | 0.00 | 0.00 | 78 | 1017.4 |
| 20260901230034 | 18 | 148 | 4.8 | 11.3 | 0.00 | 0.00 | 0.00 | 78 | 1017.3 |
| 20260901224527 | 18 | 162 | 9.7 | 14.5 | 0.00 | 0.00 | 0.00 | 77 | 1017.0 |
| 20260901223026 | 19 | 153 | 6.4 | 9.7 | 0.00 | 0.00 | 0.00 | 77 | 1016.9 |
| 20260901221531 | 20 | 158 | 6.4 | 11.3 | 0.00 | 0.00 | 0.00 | 77 | 1016.9 |
| 20260901220024 | 20 | 176 | 8.0 | 12.9 | 0.00 | 0.00 | 0.00 | 77 | 1016.9 |
| 20260901214535 | 20 | 171 | 6.4 | 11.3 | 0.00 | 0.00 | 0.00 | 78 | 1016.8 |
| 20260901213024 | 19 | 185 | 8.0 | 17.7 | 0.00 | 0.00 | 0.00 | 81 | 1016.6 |
| 20260901211522 | 19 | 175 | 9.7 | 14.5 | 0.00 | 0.00 | 0.00 | 81 | 1016.5 |
| 20260901210023 | 19 | 203 | 11.3 | 14.5 | 0.00 | 0.00 | 0.00 | 81 | 1016.4 |
| 20260901204521 | 19 | 170 | 9.7 | 19.3 | 0.00 | 0.00 | 0.00 | 82 | 1016.3 |
| 20260901203020 | 19 | 210 | 11.3 | 19.3 | 0.00 | 0.00 | 0.00 | 80 | 1016.2 |
| 20260901201519 | 20 | 198 | 11.3 | 19.3 | 0.00 | 0.00 | 0.00 | 79 | 1016.1 |
| 20260901200031 | 20 | 194 | 14.5 | 20.9 | 0.00 | 0.00 | 0.00 | 78 | 1016.3 |
| 20260901194519 | 21 | 180 | 14.5 | 24.1 | 0.00 | 0.00 | 0.00 | 70 | 1016.3 |
| 20260901193018 | 21 | 156 | 17.7 | 25.7 | 0.00 | 0.00 | 0.00 | 62 | 1016.3 |
| 20260901191518 | 21 | 171 | 17.7 | 27.4 | 0.00 | 0.00 | 0.00 | 61 | 1016.2 |
| 20260901190020 | 21 | 157 | 17.7 | 29.0 | 0.00 | 0.00 | 0.00 | 63 | 1016.2 |
| 20260901184519 | 21 | 153 | 16.1 | 27.4 | 0.00 | 0.00 | 0.00 | 63 | 1016.1 |
| 20260901183018 | 21 | 153 | 16.1 | 25.7 | 0.00 | 0.00 | 0.00 | 64 | 1016.1 |
| 20260901181519 | 20 | 173 | 11.3 | 19.3 | 0.00 | 0.00 | 0.00 | 76 | 1016.1 |
| 20260901180015 | 20 | 221 | 14.5 | 19.3 | 0.00 | 0.00 | 0.00 | 77 | 1016.1 |
| 20260901174515 | 21 | 198 | 11.3 | 17.7 | 0.00 | 0.00 | 0.00 | 73 | 1016.0 |
| 20260901173014 | 21 | 218 | 9.7 | 16.1 | 0.00 | 0.00 | 0.00 | 75 | 1016.0 |
| 20260901171520 | 21 | 186 | 8.0 | 12.9 | 0.00 | 0.00 | 0.00 | 74 | 1016.1 |
| 20260901170014 | 21 | 158 | 6.4 | 14.5 | 0.00 | 0.00 | 0.00 | 76 | 1016.0 |
| 20260901164514 | 20 | 213 | 8.0 | 16.1 | 0.00 | 0.00 | 0.00 | 77 | 1015.9 |
| 20260901163015 | 20 | 224 | 6.4 | 16.1 | 0.00 | 0.00 | 0.00 | 76 | 1015.9 |
| 20260901161512 | 21 | 162 | 6.4 | 11.3 | 0.00 | 0.00 | 0.00 | 73 | 1016.1 |
| 20260901160012 | 23 | 174 | 4.8 | 9.7 | 0.00 | 0.00 | 0.00 | 66 | 1016.2 |
| 20260901154507 | 21 | 49 | 6.4 | 11.3 | 0.00 | 0.00 | 0.00 | 69 | 1016.3 |
| 20260901153007 | 21 | 309 | 3.2 | 6.4 | 0.00 | 0.00 | 0.00 | 73 | 1016.3 |
| 20260901151504 | 21 | 22 | 4.8 | 9.7 | 0.00 | 0.00 | 0.00 | 73 | 1016.2 |
| 20260901150006 | 20 | 103 | 3.2 | 9.7 | 0.00 | 0.00 | 0.00 | 75 | 1016.3 |
| 20260901144502 | 20 | 150 | 1.6 | 6.4 | 0.00 | 0.00 | 0.00 | 76 | 1016.3 |
| 20260901143102 | 20 | 129 | 4.8 | 8.0 | 0.00 | 0.00 | 0.00 | 73 | 1016.5 |
| 20260901141559 | 20 | 158 | 4.8 | 8.0 | 0.00 | 0.00 | 0.00 | 72 | 1016.6 |
| 20260901140105 | 20 | 103 | 3.2 | 8.0 | 0.00 | 0.00 | 0.00 | 74 | 1016.5 |
| 20260901134553 | 19 | 96 | 3.2 | 6.4 | 0.00 | 0.00 | 0.00 | 74 | 1016.6 |
| 20260901133048 | 17 | 72 | 1.6 | 9.7 | 0.00 | 0.00 | 0.00 | 78 | 1016.6 |
| 20260901131545 | 17 | 36 | 4.8 | 9.7 | 0.00 | 0.00 | 0.00 | 79 | 1016.3 |
| 20260901130043 | 17 | 358 | 4.8 | 9.7 | 0.00 | 0.00 | 0.00 | 80 | 1016.3 |
| 20260901124540 | 16 | 319 | 1.6 | 4.8 | 0.00 | 0.00 | 0.00 | 83 | 1016.3 |
| 20260901123041 | 16 | 356 | 4.8 | 9.7 | 0.00 | 0.00 | 0.00 | 84 | 1016.1 |
| 20260901121537 | 15 | 11 | 1.6 | 8.0 | 0.00 | 0.00 | 0.00 | 86 | 1016.4 |
| 20260901120028 | 15 | 7 | 0.0 | 4.8 | 0.00 | 0.00 | 0.00 | 87 | 1016.2 |
| 20260901114527 | 13 | 353 | 4.8 | 9.7 | 0.00 | 0.00 | 0.00 | 89 | 1016.1 |
| 20260901113023 | 13 | 323 | 3.2 | 6.4 | 0.00 | 0.00 | 0.00 | 91 | 1016.1 |
| 20260901111521 | 12 | 358 | 1.6 | 6.4 | 0.00 | 0.00 | 0.00 | 91 | 1016.0 |
| 20260901110022 | 13 | 323 | 1.6 | 4.8 | 0.00 | 0.00 | 0.00 | 89 | 1015.7 |
| 20260901104524 | 12 | 353 | 0.0 | 6.4 | 0.00 | 0.00 | 0.00 | 91 | 1015.6 |
| 20260901103014 | 12 | 359 | 4.8 | 9.7 | 0.00 | 0.00 | 0.00 | 91 | 1015.3 |
| 20260901101509 | 12 | 356 | 8.0 | 11.3 | 0.00 | 0.00 | 0.00 | 92 | 1015.5 |
| 20260901100007 | 12 | 360 | 6.4 | 8.0 | 0.00 | 0.00 | 0.00 | 93 | 1015.4 |
| 20260901094505 | 12 | 359 | 0.0 | 3.2 | 0.00 | 0.00 | 0.00 | 92 | 1015.6 |
| 20260901093001 | 12 | 352 | 0.0 | 4.8 | 0.00 | 0.00 | 0.00 | 92 | 1015.6 |
| 20260901091624 | 12 | 1 | 0.0 | 6.4 | 0.00 | 0.00 | 0.00 | 91 | 1015.5 |
| 20260901090058 | 12 | 360 | 1.6 | 8.0 | 0.00 | 0.00 | 0.00 | 90 | 1015.6 |
| 20260901084601 | 12 | 352 | 6.4 | 9.7 | 0.00 | 0.00 | 0.00 | 90 | 1015.7 |
| 20260901083058 | 12 | 360 | 4.8 | 8.0 | 0.00 | 0.00 | 0.00 | 89 | 1015.6 |
| 20260901081555 | 13 | 349 | 3.2 | 6.4 | 0.00 | 0.00 | 0.00 | 87 | 1015.6 |
| 20260901080101 | 13 | 352 | 3.2 | 6.4 | 0.00 | 0.00 | 0.00 | 89 | 1015.6 |
| 20260901074613 | 13 | 350 | 3.2 | 8.0 | 0.00 | 0.00 | 0.00 | 88 | 1015.8 |
| 20260901073054 | 13 | 338 | 0.0 | 8.0 | 0.00 | 0.00 | 0.00 | 89 | 1015.6 |
| 20260901071553 | 13 | 359 | 3.2 | 9.7 | 0.00 | 0.00 | 0.00 | 89 | 1015.8 |
| 20260901070104 | 13 | 349 | 3.2 | 6.4 | 0.00 | 0.00 | 0.00 | 89 | 1015.9 |
| 20260901064552 | 13 | 341 | 1.6 | 4.8 | 0.00 | 0.00 | 0.00 | 91 | 1016.0 |